Regional Weather Roundup
Issued by NWS

Home | Current Version | Previous Version | Text Only | Print | Product List | Glossary Off
Versions: 1 2 3 4 5 6 7 8 9 10 11 12 13 14 15 16 17 18 19 20 21 22 23 24 25 26 27 28 29 30 31 32 33 34 35 36 37 38 39 40 41 42 43 44 45 46 47 48 49 50

000
ASUS43 KMKX 202111
RWRWI

WISCONSIN REGIONAL WEATHER ROUNDUP
NATIONAL WEATHER SERVICE MILWAUKEE/SULLIVAN WI
400 PM CDT SAT SEP 20 2014

NOTE: "FAIR" INDICATES FEW OR NO CLOUDS BELOW 12,000 FEET WITH NO
SIGNIFICANT WEATHER AND/OR OBSTRUCTIONS TO VISIBILITY.

WIZ001-002-006>008-014>016-023>028-202200-
NORTHWEST WISCONSIN

CITY           SKY/WX    TMP DP  RH WIND       PRES   REMARKS
SUPERIOR ARPT  PTSUNNY   71  54  55 W9G16     29.70S
ASHLAND        SUNNY     67  50  54 NW7       29.71F
HAYWARD        PTSUNNY   69  50  50 W10G20    29.73S
SIREN          MOSUNNY   70  53  54 NW12      29.74F
RICE LAKE      MOSUNNY   72  52  49 NW14      29.76S
LADYSMITH      MOSUNNY   72  54  52 W12       29.74S
EAU CLAIRE     PTSUNNY   75  56  51 NW12      29.73S
MENOMONIE      CLEAR     76  52  44 W15       29.74F
NEW RICHMOND   PTSUNNY   75  54  47 W9        29.75F
OSCEOLA        MOSUNNY   74  56  53 W12       29.77F
$$

WIZ003>005-009-010-017-018-202200-
NORTH CENTRAL WISCONSIN

CITY           SKY/WX    TMP DP  RH WIND       PRES   REMARKS
WOODRUFF       SUNNY     72  57  59 NW6       29.70F
RHINELANDER    PTSUNNY   71  54  54 NW7       29.70F
EAGLE RIVER    PTSUNNY   70  53  53 N10       29.69F
LAND O LAKES   MOSUNNY   67  54  63 N13       29.71S
PHILLIPS       PTSUNNY   71  54  56 W5        29.70S
TOMAHAWK       MOSUNNY   72  53  52 W12       29.71F
MEDFORD        MOSUNNY   71  55  56 W12G20    29.72S
MERRILL        MOSUNNY   73  56  55 NW10      29.70F
$$

WIZ029-030-035-036-043>047-202200-
CENTRAL WISCONSIN

CITY           SKY/WX    TMP DP  RH WIND       PRES   REMARKS
WAUSAU         MOSUNNY   75  55  49 W15       29.69S
MOSINEE        PTSUNNY   73  59  60 W13       29.72S
MARSHFIELD     MOSUNNY   74  56  53 W14G20    29.73F
STEVENS POINT  MOSUNNY   73  57  56 W12       29.71F
WAUPACA        MOSUNNY   77  62  59 W13       29.71S
WAUTOMA        MOSUNNY   77  62  59 W13       29.72F
WISC RAPIDS    MOSUNNY   74  57  55 W12       29.74S
CAMP DOUGLAS   MOSUNNY   76  64  64 W12       29.74F
$$

WIZ011>013-019>022-031-037>040-048>050-202200-
NORTHEAST WISCONSIN

CITY           SKY/WX    TMP DP  RH WIND       PRES   REMARKS
ANTIGO         PTSUNNY   73  55  52 W10       29.70F
STURGEON BAY   CLOUDY    72  63  73 SW21      29.66F
GREEN BAY      PTSUNNY   75  63  66 W13       29.68F
MANITOWOC      CLOUDY    71  65  81 W10       29.71F
APPLETON       PTSUNNY   73  63  68 W14       29.71F
CLINTONVILLE   MOSUNNY   73  57  56 W8        29.69R
OSHKOSH        PTSUNNY   73  64  73 SW7       29.72S
$$

WIZ032>034-041-042-053>061-202200-
SOUTHWEST WISCONSIN

CITY           SKY/WX    TMP DP  RH WIND       PRES   REMARKS
LA CROSSE      SUNNY     80  58  46 NW12      29.74F HX  80
SPARTA         MOSUNNY   77  56  49 W9        29.75S
VIROQUA        MOCLDY    77  57  51 W10       29.78S
BOSCOBEL       MOSUNNY   80  64  58 SW8       29.76F HX  82
PRAIRIE DU CHI PTSUNNY   79  59  50 W12       29.77R HX  80
PLATTEVILLE    FAIR      78  64  62 SW17G23   29.80S
$$

WIZ056-057-062-063-064-067-068-202200-
SOUTH CENTRAL WISCONSIN

CITY           SKY/WX    TMP DP  RH WIND       PRES   REMARKS
BARABOO/DELLS  PTSUNNY   73  62  67 W8        29.76S
LONE ROCK      MOSUNNY   80  63  55 SW12      29.76F HX  81
WATERTOWN      MOSUNNY   76  63  63 SW14G21   29.75S
MADISON        PTSUNNY   77  61  57 VRB5      29.75F
MIDDLETON      FAIR      77  60  56 W15G21    29.76F
MONROE         MOSUNNY   75  61  60 SW13G23   29.77F
JANESVILLE     SUNNY     75  64  69 SW15G23   29.78S
$$

WIZ051-052-058>065-066-070>072-202200-
SOUTHEAST WISCONSIN

CITY           SKY/WX    TMP DP  RH WIND       PRES   REMARKS
MILWAUKEE      CLOUDY    73  64  73 SW14      29.75F
WAUKESHA       MOSUNNY   72  64  78 SW12G17   29.76F
MILWAUKEE/TIMM NOT AVBL
RACINE         CLOUDY    72  67  84 SW7       29.79F
BURLINGTON     CLOUDY    71  65  81 SW10G16   29.77S
KENOSHA        CLOUDY    72  68  87 SW10      29.78F
FOND DU LAC    PTSUNNY   72  63  73 SW14      29.74R
SHEBOYGAN      LGT RAIN  72  65  78 W15       29.73F
WEST BEND      PTSUNNY   73  61  64 SW10G18   29.74F
JUNEAU         CLOUDY    72  62  69 SW16G22   29.77S
$$

LSZ147-162-202200-
LAKE SUPERIOR

STATION/POSITION TIME  TEMP    WIND        PRES    WAVE
                       AIR SEA DIR/SP/G            HT/PER
                 (UTC) (F)     (DEG/KT/KT) (MB)    (FT/S)
W MID LAKE BUOY  2050   53 47  240/ 14/ 14 1004.9R   2/ 4
DEVILS ISLAND    2100   57     280/  9/ 11 1005.6F
PORT WING        2000   65     250/  7/ 11 1006.4F
SAXON HARBOR     2000   63     300/  2/  5 1006.8R
$$

LMZ867-665-643>646-202200-
LAKE MICHIGAN

STATION/POSITION TIME  TEMP    WIND        PRES    WAVE
                       AIR SEA DIR/SP/G            HT/PER
                 (UTC) (F)     (DEG/KT/KT) (MB)    (FT/S)
N MID LAKE BUOY  2050   60 58  220/ 17/ 19 1003.0R   5/ 7
NORTHPORT PIER   2000   72     230/  5/ 13 1003.0S
KEWAUNEE LAKESHO 2000   71     240/  7/ 10 1004.7F
SHEBOYGAN LAKESH 2100   71 55  250/ 14/ 16 1006.4F
PORT WASHINGTON  2000   76     250/  8/ 17 1007.8
ATWATER BUOY     2100   67     210/ 12/ 14 1008.1F
MILWAUKEE LAKESH 2000   75     230/ 17/ 22   N/A
S MID LAKE BUOY  2050   66     220/ 12/ 14 1009.0R
KENOSHA   LAKESH 2100   70     210/  7/ 10 1008.1F
$$

TC  - TEMPERATURE IN CELSIUS
VSB - VISIBILITY IN STATUTE MILES
WCI - WIND CHILL INDEX
HX  - HEAT INDEX




USA.gov is the U.S. government's official web portal to all federal, state and local government web resources and services.